アトラス彗星

C/2024 G2 ( ATLAS )

English version
Home page
Updated on July 27, 2024

---------------------------------------------------------------------

・ プロフィール

発見日 2024年4月8日
発見光度 18.6等
発見者 Asteroid Terrestrial-Impact Last Alert System (ATLAS) search program

・ 写真集

・ 軌道要素

Epoch 2024 Mar. 31.0 TT = JDT 2460400.5
T 2025 June 13.53408 TT                                 Rudenko
q   5.3480564            (2000.0)            P               Q
z  +0.0012582      Peri.  328.73141     -0.88647662     -0.44501950
 +/-0.0001347      Node   171.37757     +0.04194982     +0.19592448
e   0.9932712      Incl.  122.13617     -0.46086811     +0.87382564
>From 63 observations 2024 Apr. 8-May 17, mean residual 0".4.

・ 光度変化

        m1 = 6.5 + 5 logΔ + 10.0 log r

---------------------------------------------------------------------

軌道要素はM.P.E.C. 2024-K130に掲載されたものです。
光度グラフはComet for Windowsで作成したものです。

---------------------------------------------------------------------

Copyright(C) Seiichi Yoshida (comet@aerith.net). All rights reserved.